Weather History for Lyndonville, VT

Change the Weather History Date:

Friday, September 27, 2013

  Actual Average (K1V4) Record (K1V4)
Temperature  
Mean Temperature 58 °F 55 °F  
Max Temperature 67 °F 66 °F 84 °F (1933)
Min Temperature 50 °F 44 °F 22 °F (1947)
Degree Days  
Heating Degree Days 6 10  
Month to date heating degree days 152  
Since 1 July heating degree days 202  
Cooling Degree Days 0 0  
Month to date cooling degree days 33  
Year to date cooling degree days 431  
Growing Degree Days 8 (Base 50)    
Moisture  
Dew Point 46 °F    
Average Humidity 70    
Maximum Humidity 86    
Minimum Humidity 43    
Precipitation  
Precipitation 0.00 in 0.12 in 1.86 in (2002)
Month to date precipitation 3.01  
Year to date precipitation 28.77  
Sea Level Pressure  
Sea Level Pressure 30.25 in    
Wind  
Wind Speed 2 mph (North)    
Max Wind Speed 9 mph    
Max Gust Speed -    
Visibility 10 miles    
Events      
T = Trace of Precipitation, MM = Missing Value Source: NWS Daily Summary

Daily Weather History Graph

Daily Weather History Graph

Search for Another Location

Airport:

Trip Planner

Search our weather history database for the weather conditions in past years. The results will help you decide how hot, cold, wet, or windy it might be!

Date:

Astronomy

Sep. 27, 2013 Rise Set
Actual Time 6:41 AM EDT 6:35 PM EDT
Civil Twilight 6:12 AM EDT 7:04 PM EDT
Nautical Twilight 5:38 AM EDT 7:38 PM EDT
Astronomical Twilight 5:03 AM EDT 8:13 PM EDT
Moon No Moon Rise 2:24 PM EDT (9/27)
Length of Visible Light 12h 52m
Length of Day
11h 54m
Last Quarter, 45% of the Moon is Illuminated
Sep 27
Last Quarter
Oct 4
New
Oct 11
First Quarter
Oct 18
Full
Oct 26
Last Quarter

Hourly Weather History & Observations

Time (EDT) Temp. Dew Point Humidity Pressure Visibility Wind Dir Wind Speed Gust Speed Precip Events Conditions
12:15 AM 52.7 °F 45.5 °F 76% 30.19 in 10.0 mi Calm Calm - N/A   Overcast
12:35 AM 52.7 °F 45.0 °F 75% 30.19 in 10.0 mi Calm Calm - N/A   Overcast
12:55 AM 52.7 °F 45.1 °F 75% 30.20 in 10.0 mi NE 3.5 mph - N/A   Overcast
1:15 AM 52.7 °F 45.5 °F 76% 30.20 in 10.0 mi Calm Calm - N/A   Overcast
1:35 AM 52.7 °F 45.5 °F 76% 30.20 in 10.0 mi NNE 3.5 mph - N/A   Overcast
1:55 AM 52.7 °F 45.5 °F 76% 30.20 in 10.0 mi Calm Calm - N/A   Overcast
2:15 AM 52.2 °F 45.5 °F 78% 30.20 in 10.0 mi North 4.6 mph - N/A   Overcast
2:35 AM 51.8 °F 45.5 °F 79% 30.20 in 10.0 mi Calm Calm - N/A   Overcast
2:55 AM 52.2 °F 45.3 °F 78% 30.20 in 10.0 mi Calm Calm - N/A   Overcast
3:15 AM 51.6 °F 45.5 °F 80% 30.20 in 10.0 mi Calm Calm - N/A   Overcast
3:35 AM 51.8 °F 45.3 °F 79% 30.20 in 10.0 mi Calm Calm - N/A   Overcast
3:55 AM 51.8 °F 45.0 °F 77% 30.20 in 10.0 mi North 4.6 mph - N/A   Overcast
4:15 AM 51.8 °F 44.8 °F 77% 30.20 in 10.0 mi North 4.6 mph - N/A   Overcast
4:35 AM 51.6 °F 45.0 °F 78% 30.21 in 10.0 mi Calm Calm - N/A   Overcast
4:55 AM 51.8 °F 45.0 °F 77% 30.22 in 10.0 mi Calm Calm - N/A   Overcast
5:15 AM 51.3 °F 45.3 °F 80% 30.22 in 10.0 mi Calm Calm - N/A   Overcast
5:35 AM 51.4 °F 44.8 °F 78% 30.22 in 10.0 mi WNW 3.5 mph - N/A   Overcast
5:55 AM 50.9 °F 45.5 °F 82% 30.23 in 10.0 mi East 3.5 mph - N/A   Overcast
6:15 AM 50.9 °F 45.9 °F 83% 30.23 in 10.0 mi ENE 4.6 mph - N/A   Overcast
6:35 AM 50.9 °F 45.9 °F 83% 30.24 in 10.0 mi NNE 4.6 mph - N/A   Overcast
6:55 AM 50.9 °F 45.9 °F 83% 30.25 in 10.0 mi NNE 3.5 mph - N/A   Overcast
7:15 AM 51.3 °F 45.5 °F 81% 30.25 in 10.0 mi North 4.6 mph - N/A   Overcast
7:35 AM 51.8 °F 45.7 °F 80% 30.26 in 10.0 mi North 3.5 mph - N/A   Overcast
7:55 AM 52.5 °F 46.0 °F 79% 30.26 in 10.0 mi Calm Calm - N/A   Overcast
8:15 AM 52.0 °F 46.6 °F 82% 30.26 in 10.0 mi Calm Calm - N/A   Overcast
8:35 AM 52.7 °F 46.9 °F 81% 30.27 in 10.0 mi Calm Calm - N/A   Overcast
8:55 AM 52.9 °F 46.4 °F 79% 30.27 in 10.0 mi Calm Calm - N/A   Overcast
9:15 AM 53.6 °F 46.8 °F 78% 30.28 in 10.0 mi Calm Calm - N/A   Overcast
9:35 AM 54.3 °F 47.5 °F 78% 30.28 in 10.0 mi Calm Calm - N/A   Overcast
9:55 AM 55.0 °F 47.3 °F 75% 30.29 in 10.0 mi Calm Calm - N/A   Overcast
10:15 AM 56.3 °F 46.6 °F 70% 30.29 in 10.0 mi Calm Calm - N/A   Overcast
10:35 AM 57.6 °F 46.9 °F 68% 30.29 in 10.0 mi Calm Calm - N/A   Overcast
10:55 AM 59.4 °F 47.1 °F 64% 30.28 in 10.0 mi Calm Calm - N/A   Overcast
11:15 AM 59.9 °F 45.5 °F 59% 30.29 in 10.0 mi Calm Calm - N/A   Mostly Cloudy
11:35 AM 60.8 °F 44.1 °F 54% 30.29 in 10.0 mi ESE 3.5 mph - N/A   Mostly Cloudy
11:55 AM 61.7 °F 46.4 °F 57% 30.28 in 10.0 mi Calm Calm - N/A   Mostly Cloudy
12:15 PM 63.1 °F 46.4 °F 54% 30.28 in 10.0 mi ESE 3.5 mph - N/A   Scattered Clouds
12:35 PM 63.5 °F 45.9 °F 53% 30.28 in 10.0 mi ESE 3.5 mph - N/A   Clear
12:55 PM 64.2 °F 45.7 °F 51% 30.27 in 10.0 mi NE 3.5 mph - N/A   Clear
1:15 PM 63.5 °F 47.5 °F 56% 30.27 in 10.0 mi WNW 5.8 mph - N/A   Clear
1:35 PM 64.4 °F 45.0 °F 49% 30.26 in 10.0 mi Calm Calm - N/A   Clear
1:55 PM 66.6 °F 46.4 °F 48% 30.25 in 10.0 mi Calm Calm - N/A   Clear
2:15 PM 67.1 °F 44.1 °F 43% 30.25 in 10.0 mi SSW 3.5 mph - N/A   Mostly Cloudy
2:35 PM 66.2 °F 44.4 °F 45% 30.25 in 10.0 mi North 5.8 mph - N/A   Overcast
2:55 PM 64.2 °F 46.4 °F 52% 30.25 in 10.0 mi NNW 3.5 mph - N/A   Mostly Cloudy
3:15 PM 67.3 °F 48.2 °F 50% 30.24 in 10.0 mi West 9.2 mph - N/A   Mostly Cloudy
3:35 PM 65.3 °F 46.6 °F 51% 30.24 in 10.0 mi West 6.9 mph - N/A   Mostly Cloudy
3:55 PM 66.7 °F 47.3 °F 50% 30.24 in 10.0 mi WSW 5.8 mph - N/A   Overcast
4:15 PM 63.9 °F 47.8 °F 56% 30.24 in 10.0 mi NNW 6.9 mph - N/A   Overcast
4:35 PM 63.5 °F 48.0 °F 57% 30.25 in 10.0 mi NNW 8.1 mph - N/A   Overcast
4:55 PM 63.5 °F 48.4 °F 58% 30.25 in 10.0 mi North 4.6 mph - N/A   Overcast
5:15 PM 63.5 °F 48.9 °F 59% 30.25 in 10.0 mi NW 5.8 mph - N/A   Overcast
5:35 PM 62.6 °F 48.0 °F 59% 30.25 in 10.0 mi NW 5.8 mph - N/A   Overcast
5:55 PM 61.7 °F 48.2 °F 61% 30.26 in 10.0 mi NW 3.5 mph - N/A   Overcast
6:15 PM 60.4 °F 48.0 °F 64% 30.25 in 10.0 mi NNW 3.5 mph - N/A   Scattered Clouds
6:35 PM 59.7 °F 47.3 °F 63% 30.26 in 10.0 mi Calm Calm - N/A   Clear
6:55 PM 59.0 °F 47.3 °F 65% 30.26 in 10.0 mi WNW 3.5 mph - N/A   Clear
7:15 PM 57.6 °F 46.8 °F 67% 30.27 in 10.0 mi Calm Calm - N/A   Clear
7:35 PM 59.0 °F 47.1 °F 65% 30.27 in 10.0 mi Calm Calm - N/A   Clear
7:55 PM 58.5 °F 47.3 °F 66% 30.27 in 10.0 mi Calm Calm - N/A   Clear
8:15 PM 56.1 °F 47.5 °F 73% 30.28 in 10.0 mi Calm Calm - N/A   Clear
8:35 PM 55.4 °F 46.8 °F 73% 30.29 in 10.0 mi Calm Calm - N/A   Clear
8:55 PM 54.5 °F 47.3 °F 77% 30.29 in 10.0 mi Calm Calm - N/A   Clear
9:15 PM 53.8 °F 48.0 °F 81% 30.29 in 10.0 mi Calm Calm - N/A   Clear
9:35 PM 54.7 °F 47.7 °F 77% 30.30 in 10.0 mi Calm Calm - N/A   Clear
9:55 PM 54.9 °F 47.3 °F 76% 30.30 in 10.0 mi Calm Calm - N/A   Clear
10:15 PM 56.5 °F 47.7 °F 72% 30.30 in 10.0 mi Calm Calm - N/A   Clear
10:35 PM 54.5 °F 47.5 °F 77% 30.31 in 10.0 mi Calm Calm - N/A   Clear
10:55 PM 52.9 °F 47.1 °F 81% 30.31 in 10.0 mi Calm Calm - N/A   Clear
11:15 PM 51.1 °F 46.4 °F 84% 30.31 in 10.0 mi Calm Calm - N/A   Clear
11:35 PM 51.6 °F 47.1 °F 85% 30.31 in 10.0 mi Calm Calm - N/A   Clear
11:55 PM 51.4 °F 47.3 °F 86% 30.31 in 10.0 mi Calm Calm - N/A   Clear